TimeEST,TemperatureF,Dew PointF,Humidity,Sea Level PressureIn,VisibilityMPH,Wind Direction,Wind SpeedMPH,Gust SpeedMPH,PrecipitationIn,Events,Conditions,WindDirDegrees,DateUTC
12:56 AM,57.9,55.0,90,29.97,10.0,WSW,4.6,-,N/A,,Clear,250,2013-12-23 05:56:00
1:56 AM,57.0,55.0,93,29.96,10.0,Calm,Calm,-,N/A,,Partly Cloudy,0,2013-12-23 06:56:00
2:56 AM,55.0,54.0,96,29.97,10.0,Calm,Calm,-,0.00,Rain,Light Rain,0,2013-12-23 07:56:00
3:56 AM,55.0,54.0,96,29.97,8.0,Calm,Calm,-,0.01,Rain,Light Rain,0,2013-12-23 08:56:00
4:54 AM,53.6,53.6,100,29.95,2.0,Calm,Calm,-,0.05,Rain,Light Rain,0,2013-12-23 09:54:00
4:56 AM,54.0,53.1,97,29.96,2.0,Calm,Calm,-,0.05,Rain,Light Rain,0,2013-12-23 09:56:00
5:05 AM,53.6,53.6,100,29.95,4.0,Calm,Calm,-,0.02,Rain,Rain,0,2013-12-23 10:05:00
5:17 AM,53.6,53.6,100,29.96,2.5,Calm,Calm,-,0.04,Rain,Light Rain,0,2013-12-23 10:17:00
5:32 AM,53.6,53.6,100,29.95,1.2,Calm,Calm,-,0.06,Rain,Rain,0,2013-12-23 10:32:00
5:54 AM,53.6,53.6,100,29.93,2.0,Calm,Calm,-,0.11,Rain,Rain,0,2013-12-23 10:54:00
5:56 AM,54.0,54.0,100,29.94,2.5,Calm,Calm,-,0.11,Rain,Rain,0,2013-12-23 10:56:00
6:03 AM,53.6,53.6,100,29.93,5.0,Calm,Calm,-,0.00,Rain,Light Rain,0,2013-12-23 11:03:00
6:56 AM,54.0,54.0,100,29.96,2.5,Calm,Calm,-,0.10,Rain,Light Rain,0,2013-12-23 11:56:00
7:01 AM,53.6,53.6,100,29.95,1.2,Calm,Calm,-,0.00,Rain,Light Rain,0,2013-12-23 12:01:00
7:15 AM,55.4,53.6,94,29.94,2.5,Calm,Calm,-,0.01,Rain,Light Rain,0,2013-12-23 12:15:00
7:22 AM,55.4,55.4,100,29.96,3.0,WNW,5.8,-,0.02,Rain,Rain,290,2013-12-23 12:22:00
7:56 AM,54.0,54.0,100,29.95,5.0,Calm,Calm,-,0.03,,Overcast,0,2013-12-23 12:56:00
8:02 AM,53.6,53.6,100,29.93,0.8,Calm,Calm,-,0.01,Rain,Light Rain,0,2013-12-23 13:02:00
8:22 AM,53.6,53.6,100,29.93,1.8,SE,5.8,-,0.01,,Overcast,130,2013-12-23 13:22:00
8:29 AM,55.4,53.6,94,29.96,6.0,Calm,Calm,-,0.01,,Overcast,0,2013-12-23 13:29:00
8:50 AM,53.6,53.6,100,29.95,1.2,Calm,Calm,-,0.01,,Overcast,0,2013-12-23 13:50:00
8:56 AM,54.0,53.1,97,29.97,0.8,NNW,4.6,-,0.01,Rain,Light Rain,340,2013-12-23 13:56:00
9:08 AM,53.6,53.6,100,29.96,1.5,NNW,4.6,-,0.00,Rain,Light Rain,340,2013-12-23 14:08:00
9:22 AM,53.6,53.6,100,29.97,1.5,NW,6.9,-,0.02,Rain,Rain,310,2013-12-23 14:22:00
9:28 AM,55.4,53.6,94,29.98,3.0,NW,9.2,-,0.02,Rain,Light Rain,310,2013-12-23 14:28:00
9:56 AM,54.0,53.1,97,30.00,5.0,WNW,5.8,-,0.03,Rain,Light Rain,300,2013-12-23 14:56:00
10:03 AM,53.6,53.6,100,30.00,10.0,WNW,4.6,-,0.00,Rain,Light Rain,300,2013-12-23 15:03:00
10:56 AM,55.0,51.1,86,30.02,10.0,West,4.6,-,0.00,,Overcast,280,2013-12-23 15:56:00
11:56 AM,55.0,50.0,83,30.00,10.0,Calm,Calm,-,0.00,,Overcast,0,2013-12-23 16:56:00
12:56 PM,54.0,46.9,77,30.00,10.0,NW,8.1,-,0.00,Rain,Light Rain,320,2013-12-23 17:56:00
1:56 PM,51.1,42.1,71,30.03,10.0,WNW,12.7,-,0.01,,Overcast,290,2013-12-23 18:56:00
2:56 PM,51.1,41.0,68,30.07,10.0,WNW,8.1,-,N/A,,Overcast,300,2013-12-23 19:56:00
3:56 PM,48.9,36.0,61,30.12,10.0,NW,16.1,21.9,N/A,,Overcast,310,2013-12-23 20:56:00
4:56 PM,45.0,32.0,60,30.16,10.0,NW,17.3,31.1,N/A,,Overcast,310,2013-12-23 21:56:00
5:56 PM,42.1,30.0,62,30.18,10.0,NW,15.0,20.7,N/A,,Mostly Cloudy,310,2013-12-23 22:56:00
6:56 PM,39.9,28.0,63,30.19,10.0,WNW,11.5,21.9,N/A,,Mostly Cloudy,300,2013-12-23 23:56:00
7:56 PM,39.0,25.0,57,30.22,10.0,NW,16.1,21.9,N/A,,Clear,320,2013-12-24 00:56:00
8:56 PM,39.0,24.1,55,30.22,10.0,NW,8.1,-,N/A,,Clear,310,2013-12-24 01:56:00
9:56 PM,37.9,23.0,55,30.23,10.0,NW,10.4,-,N/A,,Clear,320,2013-12-24 02:56:00
10:56 PM,37.0,21.0,52,30.24,10.0,NW,10.4,-,N/A,,Clear,310,2013-12-24 03:56:00
11:56 PM,36.0,21.0,55,30.24,10.0,WNW,3.5,-,N/A,,Clear,290,2013-12-24 04:56:00